KJ5NLM Weather Reports


time (UTC)temp
F
wind
direction
speed
knots
gust
knots
rain 1hr
in
rain 24hr
in
rain mn
in
humidity
%
barometer
mb
20260906230515 99 158 0.9 3.5 0.00 0.00 0.00 42 1008.2
20260906225536 99 158 0.9 5.2 0.00 0.00 0.00 44 1008.3
20260906224536 99 180 0.9 3.5 0.00 0.00 0.00 43 1008.2
20260906223515 99 158 0.9 3.5 0.00 0.00 0.00 44 1008.3
20260906222535 100 158 1.7 4.3 0.00 0.00 0.00 43 1008.4
20260906221515 100 158 0.9 5.2 0.00 0.00 0.00 44 1008.4
20260906220516 100 158 0.9 4.3 0.00 0.00 0.00 44 1008.4
20260906215515 100 315 0.9 2.6 0.00 0.00 0.00 44 1008.4
20260906214515 100 315 0.9 2.6 0.00 0.00 0.00 43 1008.5
20260906214036 100 180 0.9 1.7 0.00 0.00 0.00 43 1008.4
20260906213015 100 180 0.9 2.6 0.00 0.00 0.00 43 1008.6
20260906212015 100 180 0.9 1.7 0.00 0.00 0.00 43 1008.7
20260906211015 101 180 1.7 3.5 0.00 0.00 0.00 42 1008.9
20260906210015 101 180 1.7 5.2 0.00 0.00 0.00 42 1009.1
20260906205015 101 135 0.9 2.6 0.00 0.00 0.00 43 1009.3
20260906204035 101 135 0.9 2.6 0.00 0.00 0.00 44 1009.4
20260906203015 100 113 0.9 2.6 0.00 0.00 0.00 45 1009.6
20260906202015 99 180 0.9 2.6 0.00 0.00 0.00 46 1009.7
20260906201015 100 338 0.9 3.5 0.00 0.00 0.00 45 1009.7
20260906200016 101 203 1.7 4.3 0.00 0.00 0.00 45 1009.8
20260906195015 100 203 0.9 4.3 0.00 0.00 0.00 46 1010.0
20260906194015 100 158 0.9 3.5 0.00 0.00 0.00 46 1010.0
20260906193015 100 135 0.9 2.6 0.00 0.00 0.00 47 1010.2
20260906192015 100 113 0.9 8.7 0.00 0.00 0.00 47 1010.2
20260906191015 99 135 1.7 5.2 0.00 0.00 0.00 48 1010.4
20260906190015 98 113 1.7 7.8 0.00 0.00 0.00 48 1010.5
20260906185015 100 113 0.9 3.5 0.00 0.00 0.00 47 1010.7
20260906184015 99 158 1.7 5.2 0.00 0.00 0.00 49 1010.7
20260906183015 99 135 0.9 4.3 0.00 0.00 0.00 49 1010.8
20260906182015 99 113 0.9 3.5 0.00 0.00 0.00 49 1011.0
20260906181015 98 158 0.9 4.3 0.00 0.00 0.00 49 1011.0
20260906180015 98 158 0.9 4.3 0.00 0.00 0.00 49 1011.2
20260906175015 98 158 0.9 4.3 0.00 0.00 0.00 50 1011.4
20260906174015 97 180 1.7 7.0 0.00 0.00 0.00 50 1011.5
20260906173016 97 180 0.9 3.5 0.00 0.00 0.00 52 1011.7
20260906172015 97 203 0.9 2.6 0.00 0.00 0.00 52 1011.8
20260906171015 96 203 0.9 2.6 0.00 0.00 0.00 53 1011.9
20260906170015 94 180 0.9 3.5 0.00 0.00 0.00 57 1011.9
20260906165015 93 203 1.7 7.0 0.00 0.00 0.00 58 1011.9
20260906164035 92 180 2.6 7.8 0.00 0.00 0.00 59 1012.0
20260906163015 93 135 0.9 2.6 0.00 0.00 0.00 61 1012.0
20260906162015 92 135 0.9 4.3 0.00 0.00 0.00 63 1012.0
20260906161035 92 225 0.9 4.3 0.00 0.00 0.00 63 1011.9
20260906160015 91 180 0.9 2.6 0.00 0.00 0.00 64 1011.9
20260906155035 91 180 0.9 2.6 0.00 0.00 0.00 64 1011.8
20260906154015 90 203 0.9 1.7 0.00 0.00 0.00 67 1011.8
20260906153015 90 0.0 1.7 0.00 0.00 0.00 68 1011.9
20260906152015 89 0.0 1.7 0.00 0.00 0.00 68 1011.7
20260906151015 88 0.0 0.9 0.00 0.00 0.00 72 1011.6
20260906150035 87 0.0 1.7 0.00 0.00 0.00 74 1011.4
20260906145015 86 180 0.9 2.6 0.00 0.00 0.00 75 1011.5
20260906144017 85 0.0 0.9 0.00 0.00 0.00 77 1011.5
20260906143037 84 0.0 0.9 0.00 0.00 0.00 77 1011.6
20260906142017 83 0.0 1.7 0.00 0.00 0.00 79 1011.7
20260906141017 83 0.0 0.9 0.00 0.00 0.00 81 1011.7
20260906140017 82 0.0 1.7 0.00 0.00 0.00 82 1011.5
20260906135017 81 0.0 0.9 0.00 0.00 0.00 83 1011.5
20260906134017 81 0.0 0.9 0.00 0.00 0.00 85 1011.5
20260906133017 80 0.0 0.9 0.00 0.00 0.00 86 1011.5
20260906132037 80 0.0 0.9 0.00 0.00 0.00 87 1011.6
20260906131017 79 0.0 0.0 0.00 0.00 0.00 88 1011.6
20260906130017 79 0.0 0.0 0.00 0.00 0.00 88 1011.4
20260906125017 78 0.0 0.0 0.00 0.00 0.00 88 1011.4
20260906124017 78 0.0 0.0 0.00 0.00 0.00 87 1011.3
20260906123017 78 0.0 0.0 0.00 0.00 0.00 87 1011.2
20260906122017 78 0.0 0.0 0.00 0.00 0.00 87 1011.1
20260906121017 78 0.0 0.0 0.00 0.00 0.00 87 1011.1
20260906120017 78 0.0 0.0 0.00 0.00 0.00 86 1011.0
20260906115017 79 0.0 0.0 0.00 0.00 0.00 86 1010.9
20260906114017 79 0.0 0.0 0.00 0.00 0.00 86 1010.9
20260906113017 79 0.0 0.0 0.00 0.00 0.00 85 1010.8
20260906112017 79 0.0 0.0 0.00 0.00 0.00 85 1010.8
20260906111037 79 0.0 0.0 0.00 0.00 0.00 85 1010.8
20260906110017 79 0.0 0.0 0.00 0.00 0.00 85 1010.6
20260906105017 79 0.0 0.0 0.00 0.00 0.00 85 1010.5
20260906104017 79 0.0 0.0 0.00 0.00 0.00 84 1010.5
20260906103017 80 0.0 0.0 0.00 0.00 0.00 83 1010.5
20260906102017 80 0.0 0.0 0.00 0.00 0.00 83 1010.4
20260906101017 80 0.0 0.0 0.00 0.00 0.00 82 1010.3
20260906100017 80 0.0 0.0 0.00 0.00 0.00 82 1010.3
20260906095017 81 0.0 0.0 0.00 0.00 0.00 82 1010.3
20260906094017 81 0.0 0.0 0.00 0.00 0.00 81 1010.3
20260906093017 81 0.0 0.0 0.00 0.00 0.00 81 1010.1
20260906092017 81 0.0 0.0 0.00 0.00 0.00 80 1010.1
20260906091017 82 0.0 0.9 0.00 0.00 0.00 80 1009.9
20260906090017 82 0.0 1.7 0.00 0.00 0.00 80 1009.9
20260906085017 82 0.0 2.6 0.00 0.00 0.00 80 1009.9
20260906084017 82 180 0.9 2.6 0.00 0.00 0.00 79 1009.9
20260906083017 82 180 0.9 4.3 0.00 0.00 0.00 79 1009.8
20260906082017 82 0.0 0.9 0.00 0.00 0.00 79 1009.7
20260906081017 82 0.0 1.7 0.00 0.00 0.00 78 1009.8
20260906080017 82 0.0 0.0 0.00 0.00 0.00 78 1010.0
20260906075037 83 0.0 0.9 0.00 0.00 0.00 77 1010.0
20260906074017 83 0.0 0.9 0.00 0.00 0.00 77 1010.0
20260906073017 83 0.0 0.9 0.00 0.00 0.00 76 1009.8
20260906072017 83 0.0 0.9 0.00 0.00 0.00 75 1009.9
20260906071017 83 0.0 0.0 0.00 0.00 0.00 75 1010.1
20260906070017 83 0.0 0.9 0.00 0.00 0.00 74 1010.2
20260906065017 84 0.0 3.5 0.00 0.00 0.00 74 1010.2
20260906064017 84 0.0 1.7 0.00 0.00 0.00 73 1010.3
20260906063017 84 180 0.9 1.7 0.00 0.00 0.00 72 1010.2
20260906062017 84 180 0.9 2.6 0.00 0.00 0.00 71 1010.1
20260906061017 85 0.0 0.9 0.00 0.00 0.00 71 1010.2
20260906060017 85 0.0 2.6 0.00 0.00 0.00 70 1010.2
20260906055017 85 0.0 1.7 0.00 0.00 0.00 70 1010.2
20260906054017 85 180 0.9 2.6 0.00 0.00 0.00 69 1010.2
20260906053017 85 180 0.9 3.5 0.00 0.00 0.00 69 1010.0
20260906052017 86 180 0.9 4.3 0.00 0.00 0.00 69 1009.9
20260906051017 86 158 1.7 4.3 0.00 0.00 0.00 69 1010.1
20260906050037 86 135 0.9 1.7 0.00 0.00 0.00 69 1010.1
20260906045016 86 0.0 1.7 0.00 0.00 0.00 68 1010.1
20260906044015 86 135 0.9 3.5 0.00 0.00 0.00 68 1010.1
20260906043015 86 180 1.7 5.2 0.00 0.00 0.00 68 1010.1
20260906042016 86 180 1.7 5.2 0.00 0.00 0.00 67 1010.0
20260906041016 87 180 0.9 4.3 0.00 0.00 0.00 67 1010.0
20260906040016 87 180 0.9 2.6 0.00 0.00 0.00 66 1009.9
20260906035015 87 180 0.9 2.6 0.00 0.00 0.00 66 1010.0
20260906034015 87 180 0.9 4.3 0.00 0.00 0.00 66 1009.8
20260906033015 88 180 1.7 3.5 0.00 0.00 0.00 65 1009.9
20260906032015 88 203 1.7 3.5 0.00 0.00 0.00 65 1009.9
20260906031016 88 203 0.9 3.5 0.00 0.00 0.00 64 1010.0
20260906030015 88 0.0 1.7 0.00 0.00 0.00 64 1010.0
20260906025015 88 225 0.9 3.5 0.00 0.00 0.00 63 1009.9
20260906024016 88 225 0.9 3.5 0.00 0.00 0.00 63 1009.7
20260906023016 88 248 0.9 3.5 0.00 0.00 0.00 63 1009.5
20260906022015 88 203 1.7 5.2 0.00 0.00 0.00 62 1009.3
20260906021015 89 203 0.9 3.5 0.00 0.00 0.00 61 1009.2
20260906020016 89 225 1.7 4.3 0.00 0.00 0.00 61 1009.1
20260906015015 90 248 0.9 2.6 0.00 0.00 0.00 60 1009.1
20260906014035 91 225 0.9 3.5 0.00 0.00 0.00 58 1008.9
20260906013015 92 180 0.9 1.7 0.00 0.00 0.00 57 1008.7
20260906012015 93 203 1.7 7.0 0.00 0.00 0.00 55 1008.5
20260906011036 94 203 2.6 7.8 0.00 0.00 0.00 54 1008.3
20260906010015 95 270 0.9 2.6 0.00 0.00 0.00 52 1008.2
20260906005015 95 203 0.9 2.6 0.00 0.00 0.00 48 1008.0
20260906004015 96 0.0 0.9 0.00 0.00 0.00 48 1008.0
20260906003035 96 0.0 1.7 0.00 0.00 0.00 46 1008.1
20260906002035 97 0.0 1.7 0.00 0.00 0.00 46 1008.1
20260906001015 97 203 0.9 2.6 0.00 0.00 0.00 45 1008.2
20260906000015 98 203 0.9 6.1 0.00 0.00 0.00 45 1008.1
20260905235015 99 203 0.9 1.7 0.00 0.00 0.00 44 1007.9
20260905234015 98 203 0.9 3.5 0.00 0.00 0.00 44 1007.8
20260905233015 98 203 0.9 1.7 0.00 0.00 0.00 44 1007.9
20260905232035 98 0.0 1.7 0.00 0.00 0.00 43 1007.9